Home > Weather > South Bend > Past weeks

Flag for USA Past Weather in South Bend, Indiana, USA — Yesterday and Last 2 Weeks

Now
69 °F

Clear.


Feels Like: 69 °F
Forecast: 66 / 80 °F
Wind: No wind

Location: Michiana Regional Airport

Current Time: Jul 29, 2016 at 1:55:37 AM

Latest Report: Jul 29, 2016 at 12:54 AM


Visibility: 10 mi

Pressure: 29.93 "Hg

Humidity: 93%

Dew Point: 67 °F

Location of South BendLocation

Past Weather in South Bend — Graph

°F

South Bend Temperature Yesterday

Maximum temperature yesterday: 84 °F (at 11:54 AM)
Minimum temperature yesterday: 66 °F (at 6:54 AM)
Average temperature yesterday: 72 °F

High & Low Weather Summary for the Past Weeks

 TemperatureHumidityPressure
High91 °F (Jul 23, 3:54 PM)100% (Jul 23, 4:54 AM)30.25 "Hg (Jul 23, 4:54 AM)
Low54 °F (Jul 17, 2:54 AM)39% (Jul 19, 3:54 PM)29.77 "Hg (Jul 13, 11:54 PM)
Average75 °F75%30.02 "Hg
* Reported Jul 13 11:54 PM — Jul 28 11:54 PM, South Bend, Weather by CustomWeather, © 2016

Note: Actual official high and low records may vary slightly from our data, if they occured in-between our weather recording intervals... More about our weather records

Advertising

South Bend Weather History for the Previous 24 Hours

Scroll right to see more
 ConditionsComfort  
Time TempWeatherWind HumidityBarometerVisibility
11:54 PM
Thu, Jul 28
69 °FClear.No wind93%29.93 "Hg10 mi
10:54 PM69 °FClear.5 mph93%29.93 "Hg10 mi
9:54 PM69 °FSunny.No wind93%29.92 "Hg10 mi
8:54 PM71 °FSunny.5 mph87%29.89 "Hg10 mi
7:54 PM70 °FPassing clouds.7 mph90%29.89 "Hg10 mi
6:54 PM70 °FThunderstorms. Partly sunny.10 mph93%29.93 "Hg7 mi
5:54 PM71 °FStrong thunderstorms. Cloudy.13 mph90%29.91 "HgN/A
12:54 PM82 °FPassing clouds.3 mph58%29.89 "Hg10 mi
11:54 AM84 °FSunny.7 mph57%29.89 "Hg10 mi
10:54 AM81 °FSunny.3 mph62%29.90 "Hg10 mi
9:54 AM80 °FSunny.N/A64%29.91 "Hg10 mi
8:54 AM75 °FSunny.No wind76%29.92 "Hg10 mi
7:54 AM71 °FSunny.3 mph87%29.91 "Hg10 mi
6:54 AM66 °FClear.No wind93%29.90 "Hg10 mi
5:54 AM67 °FClear.No wind93%29.90 "Hg10 mi
4:54 AM68 °FClear.No wind90%29.90 "Hg10 mi
3:54 AM69 °FClear.No wind90%29.90 "Hg10 mi
2:54 AM69 °FClear.6 mph90%29.92 "Hg10 mi
1:54 AM69 °FClear.No wind90%29.93 "Hg10 mi
Weather by CustomWeather, © 2016

See weather overviewHow to use our weather pages